Simultaneous Nadir Overpasses (SNOs) Predictions

Prediction of SNOs between LANDSAT-8 and NOAA-19 Satellite Orbit:

Table of predicted SNOs for the next 14.0 days since TLE Epoch: 7/26/2018
Index Date (LANDSAT-8) Time (LANDSAT-8) Lat,Lon (LANDSAT-8) SZA (LANDSAT-8 ) Date (NOAA-19) Time (NOAA-19) Lat,Lon (NOAA-19) SZA (NOAA-19 ) Distance(km) Time Diff (sec)
1 07/27/2018 07:50:43 77.88, 77.26 58.98 07/27/2018 07:49:31 77.95, 76.21 58.98 26.04 72
2 07/27/2018 08:40:12 -77.80,-115.46 121.12 07/27/2018 08:40:22 -77.76,-115.47 121.15 3.62 10
3 07/29/2018 14:13:55 77.80, -18.87 59.41 07/29/2018 14:14:00 77.77, -18.86 59.39 2.90 5
4 07/31/2018 19:47:40 -77.82, 77.78 120.03 07/31/2018 19:47:29 -77.78, 77.80 120.06 4.25 11
5 08/03/2018 01:21:24 77.82, 174.33 60.54 08/03/2018 01:21:09 77.82, 174.28 60.54 1.26 15
6 08/03/2018 02:10:52 -77.79, -18.16 119.49 08/03/2018 02:12:03 -77.77, -18.21 119.49 2.08 71
7 08/05/2018 06:55:09 -77.84, -89.01 118.84 08/05/2018 06:54:37 -77.81, -88.97 118.87 3.30 32
8 08/05/2018 07:44:36 77.78, 78.38 61.10 08/05/2018 07:45:43 77.80, 78.29 61.14 3.33 67
9 08/07/2018 12:28:53 77.82, 7.51 61.77 08/07/2018 12:28:17 77.83, 7.55 61.77 1.58 36
10 08/07/2018 13:18:21 -77.80, 175.03 118.26 08/07/2018 13:19:11 -77.80, 175.00 118.24 0.92 50
11 08/09/2018 18:02:38 -77.84, 104.17 117.57 08/09/2018 18:01:45 -77.84, 104.23 117.58 1.48 53




NCC Satellite Simultaneous Nadir Overpasses (SNOs) Prediction Service
